09-04-2022, 00:00:01,    262,    0.7,    0.7,   0.00,   0.00, 1007.4,   91.1, -999.0
09-04-2022, 00:00:11,    248,    0.7,    0.7,   0.00,   0.00, 1007.4,   91.2, -999.0
09-04-2022, 00:00:21,    247,    0.0,    0.5,   0.00,   0.00, 1007.3,   91.0, -999.0
09-04-2022, 00:00:31,    248,    0.0,    0.7,   0.00,   0.00, 1007.3,   91.1, -999.0
09-04-2022, 00:00:41,    247,    0.0,    0.6,   0.00,   0.00, 1007.3,   91.2, -999.0
09-04-2022, 00:00:51,    247,    0.0,    0.7,   0.00,   0.00, 1007.3,   91.1, -999.0
09-04-2022, 00:01:01,    254,    0.2,    0.7,   0.00,   0.00, 1007.3,   91.2, -999.0
09-04-2022, 00:01:11,    283,    1.3,    0.7,   0.00,   0.00, 1007.5,   91.5, -999.0
09-04-2022, 00:01:21,    274,    0.9,    0.8,   0.00,   0.00, 1007.4,   91.4, -999.0
09-04-2022, 00:01:31,    274,    0.0,    0.6,   0.00,   0.00, 1007.3,   91.1, -999.0
09-04-2022, 00:01:41,    262,    0.0,    0.5,   0.00,   0.00, 1007.3,   90.9, -999.0
09-04-2022, 00:01:51,    235,    0.4,    0.7,   0.00,   0.00, 1007.4,   91.3, -999.0
09-04-2022, 00:02:00,    236,    0.0,    0.6,   0.00,   0.00, 1007.3,   91.1, -999.0
09-04-2022, 00:02:11,    235,    0.0,    0.6,   0.00,   0.00, 1007.3,   91.1, -999.0
09-04-2022, 00:02:21,    258,    0.0,    0.6,   0.00,   0.00, 1007.3,   91.0, -999.0
09-04-2022, 00:02:30,    296,    0.2,    0.6,   0.00,   0.00, 1007.4,   91.3, -999.0
09-04-2022, 00:02:41,    295,    0.1,    0.6,   0.00,   0.00, 1007.4,   91.2, -999.0
09-04-2022, 00:02:51,    274,    0.5,    0.6,   0.00,   0.00, 1007.4,   91.4, -999.0
09-04-2022, 00:03:00,    276,    0.2,    0.7,   0.00,   0.00, 1007.4,   91.3, -999.0
09-04-2022, 00:03:10,    274,    0.0,    0.6,   0.00,   0.00, 1007.3,   91.0, -999.0
09-04-2022, 00:03:20,    274,    0.0,    0.6,   0.00,   0.00, 1007.3,   91.1, -999.0
09-04-2022, 00:03:30,    273,    0.1,    0.6,   0.00,   0.00, 1007.4,   91.2, -999.0
09-04-2022, 00:03:40,    274,    0.0,    0.6,   0.00,   0.00, 1007.3,   91.1, -999.0
09-04-2022, 00:03:50,    274,    0.0,    0.7,   0.00,   0.00, 1007.3,   91.0, -999.0
09-04-2022, 00:04:00,    272,    0.1,    0.6,   0.00,   0.00, 1007.4,   91.2, -999.0
09-04-2022, 00:04:10,    259,    0.1,    0.7,   0.00,   0.00, 1007.4,   91.3, -999.0
09-04-2022, 00:04:20,    248,    1.1,    0.6,   0.00,   0.00, 1007.4,   91.5, -999.0
09-04-2022, 00:04:30,    249,    0.5,    0.8,   0.00,   0.00, 1007.4,   91.5, -999.0
09-04-2022, 00:04:40,    249,    0.0,    0.6,   0.00,   0.00, 1007.3,   91.2, -999.0
09-04-2022, 00:04:50,    274,    0.3,    0.6,   0.00,   0.00, 1007.4,   91.2, -999.0
09-04-2022, 00:05:00,    254,    1.0,    0.7,   0.00,   0.00, 1007.5,   91.5, -999.0
09-04-2022, 00:05:10,    257,    0.9,    0.7,   0.00,   0.00, 1007.4,   91.5, -999.0
09-04-2022, 00:05:20,    260,    1.3,    0.6,   0.00,   0.00, 1007.4,   91.5, -999.0
09-04-2022, 00:05:30,    260,    0.3,    0.6,   0.00,   0.00, 1007.4,   91.4, -999.0
09-04-2022, 00:05:39,    259,    0.0,    0.6,   0.00,   0.00, 1007.3,   91.2, -999.0
09-04-2022, 00:05:50,    259,    0.0,    0.6,   0.00,   0.00, 1007.3,   91.1, -999.0
09-04-2022, 00:06:00,    259,    0.0,    0.5,   0.00,   0.00, 1007.3,   91.0, -999.0
09-04-2022, 00:06:09,    259,    0.0,    0.5,   0.00,   0.00, 1007.3,   91.1, -999.0
09-04-2022, 00:06:20,    258,    0.1,    0.6,   0.00,   0.00, 1007.4,   91.3, -999.0
09-04-2022, 00:06:30,    258,    0.3,    0.7,   0.00,   0.00, 1007.4,   91.4, -999.0
09-04-2022, 00:06:39,    256,    0.5,    0.6,   0.00,   0.00, 1007.4,   91.5, -999.0
09-04-2022, 00:06:49,    256,    0.0,    0.6,   0.00,   0.00, 1007.3,   91.2, -999.0
09-04-2022, 00:06:59,    251,    0.2,    0.6,   0.00,   0.00, 1007.4,   91.3, -999.0
09-04-2022, 00:07:09,    251,    0.1,    0.7,   0.00,   0.00, 1007.4,   91.4, -999.0
09-04-2022, 00:07:19,    250,    0.0,    0.5,   0.00,   0.00, 1007.3,   91.2, -999.0
09-04-2022, 00:07:29,    248,    0.3,    0.6,   0.00,   0.00, 1007.3,   91.3, -999.0
09-04-2022, 00:07:39,    234,    1.6,    0.7,   0.00,   0.00, 1007.4,   91.6, -999.0
09-04-2022, 00:07:49,    248,    1.2,    0.7,   0.00,   0.00, 1007.4,   91.6, -999.0
09-04-2022, 00:07:59,    250,    0.0,    0.7,   0.00,   0.00, 1007.3,   91.3, -999.0
09-04-2022, 00:08:09,    248,    0.0,    0.7,   0.00,   0.00, 1007.3,   91.2, -999.0
09-04-2022, 00:08:19,    220,    0.1,    0.7,   0.00,   0.00, 1007.4,   91.6, -999.0
09-04-2022, 00:08:29,    225,    0.2,    0.7,   0.00,   0.00, 1007.4,   91.5, -999.0
09-04-2022, 00:08:39,    226,    0.0,    0.7,   0.00,   0.00, 1007.3,   91.3, -999.0
09-04-2022, 00:08:49,    234,    0.4,    0.4,   0.00,   0.00, 1007.4,   91.6, -999.0
09-04-2022, 00:08:59,    235,    0.2,    0.7,   0.00,   0.00, 1007.4,   91.5, -999.0
09-04-2022, 00:09:09,    235,    0.0,    0.6,   0.00,   0.00, 1007.3,   91.2, -999.0
09-04-2022, 00:09:18,    234,    0.0,    0.7,   0.00,   0.00, 1007.3,   91.3, -999.0
09-04-2022, 00:09:29,    233,    0.1,    0.8,   0.00,   0.00, 1007.4,   91.6, -999.0
09-04-2022, 00:09:39,    241,    0.0,    0.7,   0.00,   0.00, 1007.3,   91.5, -999.0
09-04-2022, 00:09:48,    276,    0.2,    0.7,   0.00,   0.00, 1007.4,   91.5, -999.0
09-04-2022, 00:09:58,    276,    0.1,    0.7,   0.00,   0.00, 1007.4,   91.7, -999.0
09-04-2022, 00:10:09,    275,    0.0,    0.7,   0.00,   0.00, 1007.3,   91.4, -999.0
09-04-2022, 00:10:18,    275,    0.0,    0.6,   0.00,   0.00, 1007.3,   91.3, -999.0
09-04-2022, 00:10:28,    277,    0.0,    0.7,   0.00,   0.00, 1007.4,   91.3, -999.0
09-04-2022, 00:10:38,    276,    0.6,    0.7,   0.00,   0.00, 1007.5,   91.7, -999.0
09-04-2022, 00:10:48,    263,    0.6,    0.8,   0.00,   0.00, 1007.5,   91.5, -999.0
09-04-2022, 00:10:58,    276,    0.0,    0.6,   0.00,   0.00, 1007.4,   91.2, -999.0
09-04-2022, 00:11:08,    297,    0.0,    0.6,   0.00,   0.00, 1007.4,   91.3, -999.0
09-04-2022, 00:11:18,    294,    0.0,    0.6,   0.00,   0.00, 1007.4,   91.3, -999.0
09-04-2022, 00:11:28,    293,    0.0,    0.6,   0.00,   0.00, 1007.4,   91.2, -999.0
09-04-2022, 00:11:38,    293,    0.0,    0.6,   0.00,   0.00, 1007.4,   91.3, -999.0
09-04-2022, 00:11:48,    293,    0.0,    0.6,   0.00,   0.00, 1007.4,   91.2, -999.0
09-04-2022, 00:11:58,    269,    0.9,    0.6,   0.00,   0.00, 1007.5,   91.5, -999.0
09-04-2022, 00:12:08,    269,    0.3,    0.7,   0.00,   0.00, 1007.5,   91.5, -999.0
09-04-2022, 00:12:18,    270,    0.0,    0.6,   0.00,   0.00, 1007.4,   91.1, -999.0
09-04-2022, 00:12:27,    270,    0.4,    0.7,   0.00,   0.00, 1007.5,   91.6, -999.0
09-04-2022, 00:12:38,    277,    1.3,    0.7,   0.00,   0.00, 1007.6,   91.6, -999.0
09-04-2022, 00:12:48,    273,    0.9,    0.7,   0.00,   0.00, 1007.6,   91.5, -999.0
09-04-2022, 00:12:57,    272,    1.0,    0.7,   0.00,   0.00, 1007.5,   91.6, -999.0
09-04-2022, 00:13:08,    271,    0.8,    0.7,   0.00,   0.00, 1007.6,   91.6, -999.0
09-04-2022, 00:13:18,    270,    0.3,    0.7,   0.00,   0.00, 1007.5,   91.5, -999.0
09-04-2022, 00:13:27,    271,    0.0,    0.4,   0.00,   0.00, 1007.4,   91.2, -999.0
09-04-2022, 00:13:37,    270,    0.5,    0.7,   0.00,   0.00, 1007.6,   91.6, -999.0
09-04-2022, 00:13:48,    269,    0.0,    0.6,   0.00,   0.00, 1007.5,   91.3, -999.0
09-04-2022, 00:13:57,    270,    0.0,    0.5,   0.00,   0.00, 1007.5,   91.2, -999.0
09-04-2022, 00:14:07,    270,    0.0,    0.5,   0.00,   0.00, 1007.5,   91.3, -999.0
09-04-2022, 00:14:17,    270,    0.0,    0.6,   0.00,   0.00, 1007.5,   91.4, -999.0
09-04-2022, 00:14:27,    273,    0.0,    0.6,   0.00,   0.00, 1007.5,   91.3, -999.0
09-04-2022, 00:14:37,    273,    0.0,    0.6,   0.00,   0.00, 1007.5,   91.2, -999.0
09-04-2022, 00:14:47,    273,    0.0,    0.6,   0.00,   0.00, 1007.5,   91.3, -999.0
09-04-2022, 00:14:57,    297,    0.5,    0.6,   0.00,   0.00, 1007.6,   91.5, -999.0
09-04-2022, 00:15:07,    300,    0.9,    0.6,   0.00,   0.00, 1007.6,   91.6, -999.0
09-04-2022, 00:15:17,    299,    0.0,    0.5,   0.00,   0.00, 1007.5,   91.2, -999.0
09-04-2022, 00:15:27,    299,    0.0,    0.6,   0.00,   0.00, 1007.5,   91.2, -999.0
09-04-2022, 00:15:37,    299,    0.0,    0.5,   0.00,   0.00, 1007.5,   91.4, -999.0
09-04-2022, 00:15:47,    299,    0.0,    0.5,   0.00,   0.00, 1007.5,   91.2, -999.0
09-04-2022, 00:15:57,    300,    0.0,    0.5,   0.00,   0.00, 1007.5,   91.3, -999.0
09-04-2022, 00:16:06,    299,    0.0,    0.5,   0.00,   0.00, 1007.5,   91.2, -999.0
09-04-2022, 00:16:17,    299,    0.0,    0.5,   0.00,   0.00, 1007.5,   91.2, -999.0
09-04-2022, 00:16:27,    296,    0.0,    0.5,   0.00,   0.00, 1007.6,   91.5, -999.0
09-04-2022, 00:16:36,    296,    0.1,    0.5,   0.00,   0.00, 1007.6,   91.4, -999.0
09-04-2022, 00:16:46,    296,    0.0,    0.6,   0.00,   0.00, 1007.5,   91.4, -999.0
09-04-2022, 00:16:57,    266,    0.3,    0.6,   0.00,   0.00, 1007.6,   91.5, -999.0
09-04-2022, 00:17:06,    266,    0.4,    0.6,   0.00,   0.00, 1007.6,   91.6, -999.0
09-04-2022, 00:17:16,    266,    1.1,    0.4,   0.00,   0.00, 1007.6,   91.6, -999.0
09-04-2022, 00:17:27,    265,    0.3,    0.6,   0.00,   0.00, 1007.6,   91.6, -999.0
09-04-2022, 00:17:36,    265,    0.0,    0.5,   0.00,   0.00, 1007.5,   91.1, -999.0
09-04-2022, 00:17:46,    266,    0.0,    0.4,   0.00,   0.00, 1007.5,   91.2, -999.0
09-04-2022, 00:17:56,    257,    0.0,    0.5,   0.00,   0.00, 1007.5,   91.4, -999.0
09-04-2022, 00:18:06,    271,    1.7,    0.6,   0.00,   0.00, 1007.6,   91.5, -999.0
09-04-2022, 00:18:16,    269,    1.3,    0.6,   0.00,   0.00, 1007.6,   91.6, -999.0
09-04-2022, 00:18:26,    273,    1.2,    0.6,   0.00,   0.00, 1007.6,   91.5, -999.0
09-04-2022, 00:18:36,    266,    1.2,    0.5,   0.00,   0.00, 1007.6,   91.6, -999.0
09-04-2022, 00:18:46,    266,    0.4,    0.6,   0.00,   0.00, 1007.6,   91.4, -999.0
09-04-2022, 00:18:56,    266,    0.3,    0.5,   0.00,   0.00, 1007.6,   91.5, -999.0
09-04-2022, 00:19:06,    267,    0.6,    0.6,   0.00,   0.00, 1007.6,   91.6, -999.0
09-04-2022, 00:19:16,    267,    0.1,    0.5,   0.00,   0.00, 1007.6,   91.4, -999.0
09-04-2022, 00:19:26,    266,    0.0,    0.5,   0.00,   0.00, 1007.5,   91.2, -999.0
09-04-2022, 00:19:36,    266,    0.1,    0.5,   0.00,   0.00, 1007.6,   91.4, -999.0
09-04-2022, 00:19:46,    266,    0.0,    0.5,   0.00,   0.00, 1007.5,   91.5, -999.0
09-04-2022, 00:19:56,    266,    0.1,    0.5,   0.00,   0.00, 1007.5,   91.4, -999.0
09-04-2022, 00:20:06,    266,    0.3,    0.5,   0.00,   0.00, 1007.6,   91.6, -999.0
09-04-2022, 00:20:15,    266,    0.0,    0.5,   0.00,   0.00, 1007.5,   91.4, -999.0
09-04-2022, 00:20:25,    265,    0.0,    0.5,   0.00,   0.00, 1007.5,   91.2, -999.0
09-04-2022, 00:20:36,    268,    0.0,    0.5,   0.00,   0.00, 1007.5,   91.3, -999.0
09-04-2022, 00:20:45,    268,    0.2,    0.5,   0.00,   0.00, 1007.6,   91.6, -999.0
09-04-2022, 00:20:55,    268,    0.0,    0.4,   0.00,   0.00, 1007.5,   91.2, -999.0
09-04-2022, 00:21:05,    269,    0.0,    0.5,   0.00,   0.00, 1007.5,   91.3, -999.0
09-04-2022, 00:21:15,    269,    0.0,    0.4,   0.00,   0.00, 1007.5,   91.4, -999.0
09-04-2022, 00:21:25,    269,    0.0,    0.5,   0.00,   0.00, 1007.5,   91.3, -999.0
09-04-2022, 00:21:35,    268,    0.0,    0.4,   0.00,   0.00, 1007.5,   91.2, -999.0
09-04-2022, 00:21:45,    269,    0.0,    0.5,   0.00,   0.00, 1007.5,   91.3, -999.0
09-04-2022, 00:21:55,    269,    0.0,    0.6,   0.00,   0.00, 1007.5,   91.5, -999.0
09-04-2022, 00:22:05,    268,    0.0,    0.5,   0.00,   0.00, 1007.5,   91.4, -999.0
09-04-2022, 00:22:15,    268,    0.0,    0.4,   0.00,   0.00, 1007.5,   91.3, -999.0
09-04-2022, 00:22:25,    268,    0.0,    0.5,   0.00,   0.00, 1007.5,   91.3, -999.0
09-04-2022, 00:22:35,    269,    0.0,    0.4,   0.00,   0.00, 1007.4,   91.2, -999.0
09-04-2022, 00:22:45,    268,    0.0,    0.4,   0.00,   0.00, 1007.5,   91.3, -999.0
09-04-2022, 00:22:55,    268,    0.0,    0.4,   0.00,   0.00, 1007.5,   91.3, -999.0
09-04-2022, 00:23:05,    272,    0.3,    0.5,   0.00,   0.00, 1007.6,   91.7, -999.0
09-04-2022, 00:23:15,    270,    0.7,    0.5,   0.00,   0.00, 1007.6,   91.6, -999.0
09-04-2022, 00:23:25,    270,    0.6,    0.5,   0.00,   0.00, 1007.6,   91.7, -999.0
09-04-2022, 00:23:34,    270,    0.5,    0.5,   0.00,   0.00, 1007.6,   91.7, -999.0
09-04-2022, 00:23:45,    269,    0.1,    0.4,   0.00,   0.00, 1007.5,   91.4, -999.0
09-04-2022, 00:23:54,    269,    0.0,    0.5,   0.00,   0.00, 1007.4,   91.2, -999.0
09-04-2022, 00:24:04,    275,    0.7,    0.5,   0.00,   0.00, 1007.6,   91.6, -999.0
09-04-2022, 00:24:15,    275,    0.4,    0.5,   0.00,   0.00, 1007.6,   91.8, -999.0
09-04-2022, 00:24:24,    274,    0.6,    0.5,   0.00,   0.00, 1007.6,   91.8, -999.0
09-04-2022, 00:24:34,    274,    0.5,    0.5,   0.00,   0.00, 1007.6,   91.8, -999.0
09-04-2022, 00:24:44,    274,    0.1,    0.5,   0.00,   0.00, 1007.6,   91.5, -999.0
09-04-2022, 00:24:54,    274,    0.2,    0.4,   0.00,   0.00, 1007.6,   91.6, -999.0
09-04-2022, 00:25:04,    274,    0.0,    0.5,   0.00,   0.00, 1007.5,   91.4, -999.0
09-04-2022, 00:25:14,    274,    0.1,    0.3,   0.00,   0.00, 1007.6,   91.5, -999.0
09-04-2022, 00:25:24,    274,    0.0,    0.4,   0.00,   0.00, 1007.5,   91.5, -999.0
09-04-2022, 00:25:34,    274,    0.0,    0.4,   0.00,   0.00, 1007.5,   91.4, -999.0
09-04-2022, 00:25:44,    265,    0.2,    0.4,   0.00,   0.00, 1007.6,   91.6, -999.0
09-04-2022, 00:25:54,    272,    0.2,    0.5,   0.00,   0.00, 1007.6,   91.6, -999.0
09-04-2022, 00:26:04,    273,    0.6,    0.5,   0.00,   0.00, 1007.6,   91.8, -999.0
09-04-2022, 00:26:14,    276,    0.4,    0.4,   0.00,   0.00, 1007.6,   91.9, -999.0
09-04-2022, 00:26:24,    271,    0.3,    0.5,   0.00,   0.00, 1007.6,   91.8, -999.0
09-04-2022, 00:26:34,    276,    0.0,    0.4,   0.00,   0.00, 1007.6,   91.7, -999.0
09-04-2022, 00:26:44,    275,    0.2,    0.5,   0.00,   0.00, 1007.6,   91.7, -999.0
09-04-2022, 00:26:54,    275,    0.0,    0.4,   0.00,   0.00, 1007.5,   91.5, -999.0
09-04-2022, 00:27:04,    275,    0.0,    0.4,   0.00,   0.01, 1007.5,   91.5, -999.0
09-04-2022, 00:27:13,    275,    0.0,    0.4,   0.00,   0.00, 1007.5,   91.4, -999.0
09-04-2022, 00:27:24,    275,    0.0,    0.4,   0.00,   0.00, 1007.5,   91.6, -999.0
09-04-2022, 00:27:33,    275,    0.0,    0.5,   0.00,   0.00, 1007.5,   91.6, -999.0
09-04-2022, 00:27:43,    262,    0.1,    0.4,   0.00,   0.00, 1007.6,   91.7, -999.0
09-04-2022, 00:27:53,    264,    0.1,    0.5,   0.00,   0.00, 1007.6,   91.8, -999.0
09-04-2022, 00:28:03,    263,    0.0,    0.4,   0.00,   0.00, 1007.5,   91.6, -999.0
09-04-2022, 00:28:13,    263,    0.0,    0.4,   0.00,   0.00, 1007.6,   91.7, -999.0
09-04-2022, 00:28:23,    263,    0.0,    0.4,   0.00,   0.00, 1007.6,   91.6, -999.0
09-04-2022, 00:28:33,    268,    0.5,    0.5,   0.00,   0.00, 1007.7,   91.9, -999.0
09-04-2022, 00:28:43,    260,    0.2,    0.5,   0.00,   0.00, 1007.6,   91.9, -999.0
09-04-2022, 00:28:53,    259,    0.0,    0.5,   0.00,   0.00, 1007.5,   91.7, -999.0
09-04-2022, 00:29:03,    263,    0.1,    0.5,   0.00,   0.00, 1007.6,   91.9, -999.0
09-04-2022, 00:29:13,    264,    0.0,    0.5,   0.00,   0.00, 1007.5,   91.7, -999.0
09-04-2022, 00:29:23,    263,    0.1,    0.4,   0.00,   0.00, 1007.6,   91.9, -999.0
09-04-2022, 00:29:33,    252,    0.3,    0.5,   0.00,   0.00, 1007.7,   92.1, -999.0
09-04-2022, 00:29:43,    251,    0.2,    0.5,   0.00,   0.00, 1007.7,   92.0, -999.0
09-04-2022, 00:29:53,    251,    0.0,    0.4,   0.00,   0.00, 1007.6,   91.8, -999.0
09-04-2022, 00:30:03,    251,    0.0,    0.5,   0.00,   0.00, 1007.6,   91.8, -999.0
09-04-2022, 00:30:13,    251,    0.0,    0.3,   0.00,   0.00, 1007.6,   91.7, -999.0
09-04-2022, 00:30:22,    251,    0.0,    0.4,   0.00,   0.00, 1007.6,   91.9, -999.0
09-04-2022, 00:30:33,    243,    0.0,    0.6,   0.00,   0.00, 1007.6,   91.7, -999.0
09-04-2022, 00:30:43,    236,    0.1,    0.5,   0.00,   0.00, 1007.7,   91.9, -999.0
09-04-2022, 00:30:52,    236,    0.0,    0.5,   0.00,   0.00, 1007.6,   91.8, -999.0
09-04-2022, 00:31:02,    242,    0.3,    0.5,   0.00,   0.00, 1007.8,   92.1, -999.0
09-04-2022, 00:31:13,    280,    0.8,    0.6,   0.00,   0.00, 1007.8,   92.1, -999.0
09-04-2022, 00:31:22,    277,    0.3,    0.5,   0.00,   0.00, 1007.7,   92.0, -999.0
09-04-2022, 00:31:32,    276,    0.0,    0.4,   0.00,   0.00, 1007.6,   91.7, -999.0
09-04-2022, 00:31:42,    275,    0.0,    0.4,   0.00,   0.00, 1007.6,   91.7, -999.0
09-04-2022, 00:31:52,    276,    0.0,    0.4,   0.00,   0.00, 1007.6,   91.5, -999.0
09-04-2022, 00:32:02,    276,    0.0,    0.4,   0.00,   0.00, 1007.6,   91.7, -999.0
09-04-2022, 00:32:12,    276,    0.0,    0.5,   0.00,   0.00, 1007.6,   91.8, -999.0
09-04-2022, 00:32:22,    274,    0.3,    0.5,   0.00,   0.00, 1007.7,   92.0, -999.0
09-04-2022, 00:32:32,    274,    0.1,    0.3,   0.00,   0.00, 1007.7,   91.8, -999.0
09-04-2022, 00:32:42,    233,    0.3,    0.5,   0.00,   0.00, 1007.7,   91.8, -999.0
09-04-2022, 00:32:52,    242,    0.2,    0.4,   0.00,   0.00, 1007.7,   91.7, -999.0
09-04-2022, 00:33:02,    261,    0.5,    0.5,   0.00,   0.00, 1007.8,   91.9, -999.0
09-04-2022, 00:33:12,    261,    1.0,    0.5,   0.00,   0.00, 1007.8,   92.0, -999.0
09-04-2022, 00:33:22,    262,    1.0,    0.5,   0.00,   0.00, 1007.8,   92.0, -999.0
09-04-2022, 00:33:31,    264,    0.5,    0.5,   0.00,   0.00, 1007.8,   91.9, -999.0
09-04-2022, 00:33:42,    264,    0.1,    0.3,   0.00,   0.00, 1007.8,   91.8, -999.0
09-04-2022, 00:33:52,    263,    0.2,    0.6,   0.00,   0.00, 1007.8,   91.9, -999.0
09-04-2022, 00:34:01,    274,    0.1,    0.4,   0.00,   0.00, 1007.8,   91.8, -999.0
09-04-2022, 00:34:12,    261,    0.7,    0.5,   0.00,   0.00, 1007.8,   92.0, -999.0
09-04-2022, 00:34:22,    259,    1.4,    0.4,   0.00,   0.00, 1007.8,   92.0, -999.0
09-04-2022, 00:34:31,    251,    1.4,    0.4,   0.00,   0.00, 1007.8,   92.0, -999.0
09-04-2022, 00:34:41,    251,    0.4,    0.4,   0.00,   0.00, 1007.8,   91.9, -999.0
09-04-2022, 00:34:52,    265,    1.3,    0.4,   0.00,   0.00, 1007.8,   92.1, -999.0
09-04-2022, 00:35:01,    265,    0.1,    0.4,   0.00,   0.00, 1007.8,   91.8, -999.0
09-04-2022, 00:35:11,    264,    0.0,    0.4,   0.00,   0.00, 1007.7,   91.6, -999.0
09-04-2022, 00:35:21,    264,    0.1,    0.3,   0.00,   0.00, 1007.7,   91.8, -999.0
09-04-2022, 00:35:31,    262,    0.0,    0.4,   0.00,   0.00, 1007.7,   91.8, -999.0
09-04-2022, 00:35:41,    255,    0.1,    0.4,   0.00,   0.00, 1007.8,   91.8, -999.0
09-04-2022, 00:35:51,    254,    0.0,    0.4,   0.00,   0.00, 1007.7,   91.8, -999.0
09-04-2022, 00:36:01,    254,    0.0,    0.4,   0.00,   0.00, 1007.7,   91.8, -999.0
09-04-2022, 00:36:11,    254,    0.0,    0.4,   0.00,   0.00, 1007.7,   91.9, -999.0
09-04-2022, 00:36:21,    265,    0.2,    0.4,   0.00,   0.00, 1007.7,   91.8, -999.0
09-04-2022, 00:36:31,    274,    0.2,    0.4,   0.00,   0.00, 1007.7,   91.8, -999.0
09-04-2022, 00:36:41,    274,    0.0,    0.4,   0.00,   0.00, 1007.7,   91.8, -999.0
09-04-2022, 00:36:51,    274,    0.0,    0.2,   0.00,   0.00, 1007.7,   91.6, -999.0
09-04-2022, 00:37:01,    282,    0.0,    0.4,   0.00,   0.00, 1007.7,   91.7, -999.0
09-04-2022, 00:37:11,    282,    0.0,    0.3,   0.00,   0.00, 1007.7,   91.8, -999.0
09-04-2022, 00:37:21,    273,    0.1,    0.4,   0.00,   0.00, 1007.8,   91.9, -999.0
09-04-2022, 00:37:31,    271,    0.1,    0.4,   0.00,   0.00, 1007.8,   92.0, -999.0
09-04-2022, 00:37:40,    262,    0.0,    0.3,   0.00,   0.00, 1007.7,   91.8, -999.0
09-04-2022, 00:37:50,    262,    0.0,    0.3,   0.00,   0.00, 1007.7,   91.8, -999.0
09-04-2022, 00:38:01,    262,    0.0,    0.3,   0.00,   0.00, 1007.7,   91.6, -999.0
09-04-2022, 00:38:10,    262,    0.0,    0.4,   0.00,   0.00, 1007.7,   91.8, -999.0
09-04-2022, 00:38:20,    262,    0.0,    0.5,   0.00,   0.00, 1007.7,   91.7, -999.0
09-04-2022, 00:38:30,    262,    0.0,    0.4,   0.00,   0.00, 1007.7,   91.8, -999.0
09-04-2022, 00:38:40,    262,    0.0,    0.4,   0.00,   0.00, 1007.7,   91.7, -999.0
09-04-2022, 00:38:50,    262,    0.0,    0.4,   0.00,   0.00, 1007.7,   91.7, -999.0
09-04-2022, 00:39:00,    263,    0.0,    0.3,   0.00,   0.00, 1007.7,   91.8, -999.0
09-04-2022, 00:39:10,    263,    0.6,    0.4,   0.00,   0.00, 1007.8,   92.1, -999.0
09-04-2022, 00:39:20,    263,    0.4,    0.4,   0.00,   0.00, 1007.9,   92.2, -999.0
09-04-2022, 00:39:30,    263,    0.0,    0.3,   0.00,   0.00, 1007.7,   91.8, -999.0
09-04-2022, 00:39:40,    263,    0.0,    0.3,   0.00,   0.00, 1007.7,   91.6, -999.0
09-04-2022, 00:39:50,    262,    0.0,    0.3,   0.00,   0.00, 1007.7,   91.7, -999.0
09-04-2022, 00:40:00,    262,    0.0,    0.3,   0.00,   0.00, 1007.7,   91.7, -999.0
09-04-2022, 00:40:10,    262,    0.0,    0.3,   0.00,   0.00, 1007.7,   91.7, -999.0
09-04-2022, 00:40:20,    261,    0.0,    0.3,   0.00,   0.00, 1007.7,   91.8, -999.0
09-04-2022, 00:40:30,    260,    0.0,    0.2,   0.00,   0.00, 1007.7,   91.7, -999.0
09-04-2022, 00:40:40,    260,    0.0,    0.3,   0.00,   0.00, 1007.7,   91.7, -999.0
09-04-2022, 00:40:50,    260,    0.0,    0.3,   0.00,   0.00, 1007.7,   91.7, -999.0
09-04-2022, 00:40:59,    260,    0.0,    0.4,   0.00,   0.00, 1007.7,   91.8, -999.0
09-04-2022, 00:41:10,    260,    0.0,    0.4,   0.00,   0.00, 1007.7,   91.8, -999.0
09-04-2022, 00:41:20,    260,    0.0,    0.3,   0.00,   0.00, 1007.8,   91.8, -999.0
09-04-2022, 00:41:29,    261,    0.0,    0.3,   0.00,   0.00, 1007.7,   91.8, -999.0
09-04-2022, 00:41:40,    260,    0.0,    0.4,   0.00,   0.00, 1007.7,   91.8, -999.0
09-04-2022, 00:41:50,    260,    0.0,    0.3,   0.00,   0.00, 1007.7,   91.9, -999.0
09-04-2022, 00:41:59,    264,    0.0,    0.4,   0.00,   0.00, 1007.7,   91.8, -999.0
09-04-2022, 00:42:09,    264,    0.0,    0.3,   0.00,   0.00, 1007.8,   91.9, -999.0
09-04-2022, 00:42:19,    251,    0.5,    0.3,   0.00,   0.00, 1007.8,   92.2, -999.0
09-04-2022, 00:42:29,    229,    0.6,    0.4,   0.00,   0.00, 1007.8,   92.2, -999.0
09-04-2022, 00:42:39,    258,    0.8,    0.4,   0.00,   0.00, 1007.9,   92.2, -999.0
09-04-2022, 00:42:49,    258,    0.2,    0.4,   0.00,   0.00, 1007.8,   92.0, -999.0
09-04-2022, 00:42:59,    258,    0.0,    0.3,   0.00,   0.00, 1007.8,   91.9, -999.0
09-04-2022, 00:43:09,    242,    0.2,    0.4,   0.00,   0.00, 1007.9,   92.0, -999.0
09-04-2022, 00:43:19,    239,    0.2,    0.4,   0.00,   0.00, 1007.9,   92.1, -999.0
09-04-2022, 00:43:29,    239,    0.0,    0.3,   0.00,   0.00, 1007.8,   91.9, -999.0
09-04-2022, 00:43:39,    238,    0.3,    0.4,   0.00,   0.00, 1007.9,   92.3, -999.0
09-04-2022, 00:43:49,    272,    0.7,    0.4,   0.00,   0.00, 1007.9,   92.4, -999.0
09-04-2022, 00:43:59,    266,    0.4,    0.4,   0.00,   0.00, 1007.9,   92.3, -999.0
09-04-2022, 00:44:09,    252,    0.3,    0.5,   0.00,   0.00, 1007.9,   92.2, -999.0
09-04-2022, 00:44:19,    253,    0.0,    0.3,   0.00,   0.00, 1007.8,   91.9, -999.0
09-04-2022, 00:44:29,    253,    0.0,    0.4,   0.00,   0.00, 1007.9,   91.9, -999.0
09-04-2022, 00:44:38,    253,    0.0,    0.3,   0.00,   0.00, 1007.8,   91.9, -999.0
09-04-2022, 00:44:49,    253,    0.3,    0.4,   0.00,   0.00, 1007.9,   92.2, -999.0
09-04-2022, 00:44:59,    258,    1.3,    0.4,   0.00,   0.00, 1008.0,   92.3, -999.0
09-04-2022, 00:45:08,    247,    1.8,    0.4,   0.00,   0.00, 1008.0,   92.2, -999.0
09-04-2022, 00:45:18,    248,    0.1,    0.3,   0.00,   0.00, 1007.9,   91.9, -999.0
09-04-2022, 00:45:29,    239,    0.0,    0.1,   0.00,   0.00, 1007.9,   91.8, -999.0
09-04-2022, 00:45:38,    239,    0.0,    0.3,   0.00,   0.00, 1007.9,   91.9, -999.0
09-04-2022, 00:45:48,    255,    0.2,    0.3,   0.00,   0.00, 1008.0,   92.1, -999.0
09-04-2022, 00:45:58,    254,    0.0,    0.2,   0.00,   0.00, 1007.8,   91.8, -999.0
09-04-2022, 00:46:08,    253,    0.0,    0.2,   0.00,   0.00, 1007.9,   91.9, -999.0
09-04-2022, 00:46:18,    253,    0.0,    0.3,   0.00,   0.00, 1007.9,   91.9, -999.0
09-04-2022, 00:46:28,    253,    0.0,    0.3,   0.00,   0.00, 1007.9,   91.8, -999.0
09-04-2022, 00:46:38,    289,    0.1,    0.2,   0.00,   0.00, 1007.9,   91.8, -999.0